Regional Weather Roundup
Issued by NWS Grand Forks, ND

Home | Current Version | Previous Version | Text Only | Print | Product List | Glossary Off
Versions: 1 2 3 4 5 6 7 8 9 10 11 12 13 14 15 16 17 18 19 20 21 22 23 24 25 26 27 28 29 30 31 32 33 34 35 36 37 38 39 40 41 42 43 44 45 46 47 48 49 50

000
ASUS43 KFGF 030010
RWRFGF
PRAIRIE TO PINES  WEATHER ROUNDUP
NATIONAL WEATHER SERVICE EASTERN NORTH DAKOTA/GRAND FORKS ND
700 PM CDT THU JUL 02 2015

 **SATELLITE DATA USED TO AUGMENT SKY COVER AT AUTOMATED STATIONS**
 *****  WEATHER ACROSS EASTERN NORTH DAKOTA  *****

CITY           SKY/WX    TMP DP  RH WIND       PRES   REMARKS
GRAND FORKS    CLOUDY    76  66  71 SW9       29.87F
6HR MIN TEMP:  75; 6HR MAX TEMP:  80; 6HR PCP: TRACE;

GRAND FRKS AFB PTSUNNY   76  66  71 W6        29.89F
GRAND FRKS NWS   N/A     77 N/A N/A SW16        N/A
DEVILS LAKE    SUNNY     75  61  60 W9        29.91S
6HR MIN TEMP:  75; 6HR MAX TEMP:  79;

FARGO          PTSUNNY   76  54  46 S9        29.93F
WAHPETON ARPT  PTCLDY    72  54  53 S6        29.96S
$$

 ***** WEATHER ACROSS CENTRAL AND WESTERN NORTH DAKOTA  *****

CITY           SKY/WX    TMP DP  RH WIND       PRES   REMARKS
BISMARCK       CLOUDY    77  62  59 N12       29.97S HAZE
6HR MIN TEMP:  75; 6HR MAX TEMP:  81;

MINOT          CLOUDY    77  65  66 NW8       29.95S HAZE
6HR MIN TEMP:  74; 6HR MAX TEMP:  79;

JAMESTOWN      PTSUNNY   76  63  64 S6        29.93S
6HR MIN TEMP:  73; 6HR MAX TEMP:  78;

MINOT AFB      PTSUNNY   80  69  70 NW9       29.94S HAZE
GARRISON         N/A     78  66  66 N7        29.96F
WILLISTON      MOSUNNY   82  57  42 N10       29.99F
6HR MIN TEMP:  69; 6HR MAX TEMP:  85; 6HR PCP:  0.06;

DICKINSON      SUNNY     79  57  46 N9        30.00F
6HR MIN TEMP:  74; 6HR MAX TEMP:  80;

HETTINGER      MOSUNNY   78  58  49 N9        30.04S HAZE
6HR MIN TEMP:  72; 6HR MAX TEMP:  78;

$$

 *****  OTHER AIRPORT OBSERVATIONS IN OUR AREA  *****

CITY           SKY/WX    TMP DP  RH WIND       PRES   REMARKS
WALHALLA       FAIR      75  66  73 MISG      29.88F HAZE
GRAFTON AIRPOR FAIR      79  66  65 NW6       29.88S
VALLEY CITY AR FAIR      75  66  73 S9        29.94S
CANDO          FAIR      75  64  69 NW8       29.93S HAZE
CAVALIER APRT  FAIR      77  64  65 NW7       29.88S HAZE
GWINNER          N/A     75  57  53 SW7       29.95
ROLLA          FAIR      73  66  78 NW8       29.95S
 ***** THE ABOVE OBSERVATIONS ARE NON NWS ARE NOT QUALITY
       CONTROLLED AND MAY MIS-REPORT RAIN FOR SNOW...
$$

  *****  WEATHER ACROSS NORTHERN MINNESOTA  *****

CITY           SKY/WX    TMP DP  RH WIND       PRES   REMARKS
FLAG ISLAND    MOSUNNY   72  63  73 SW10      29.86F
WARROAD        PTSUNNY   73  64  73 SW8       29.89S
ROSEAU         MOSUNNY   73  64  73 SW8       29.88F
HALLOCK        MOSUNNY   75  68  78 SW6       29.87R
THF RVR FALLS  PTSUNNY   73  59  60 S8        29.91F
6HR MIN TEMP:  72; 6HR MAX TEMP:  75;

BAUDETTE       PTSUNNY   72  55  55 SW6       29.89F
6HR MIN TEMP:  72; 6HR MAX TEMP:  76;

WASKISH        MOSUNNY   72  61  68 SW8       29.93R
CROOKSTON      LGT RAIN  72  63  73 SW8       29.91S
$$
  *****  WEATHER ACROSS CENTRAL AND WEST MINNESOTA  *****

CITY           SKY/WX    TMP DP  RH WIND       PRES   REMARKS
FOSSTON        MOSUNNY   70  54  56 SW6       29.95S
BEMIDJI        SUNNY     72  56  57 SW8       29.95R
PARK RAPIDS    SUNNY     74  56  53 SW9       29.96S
6HR MIN TEMP:  74; 6HR MAX TEMP:  78;

ELBOW LAKE     FAIR      72  52  49 S6        29.97S
6HR MIN TEMP:  71; 6HR MAX TEMP:  74;

WADENA         SUNNY     72  54  53 SW8       29.97S
DETROIT LAKES  SUNNY     72  54  53 SW8       29.98S
MOORHEAD       PTSUNNY   73  54  49 S7        29.94F
FERGUS FALLS   SUNNY     73  52  46 S7        29.96S
MORRIS MN      SUNNY     75  50  41 S7        29.96F
STAPLES        SUNNY     72  54  53 S8        29.98R
$$
  *****  WEATHER ELSEWHERE ACROSS MINNESOTA  *****

CITY           SKY/WX    TMP DP  RH WIND       PRES   REMARKS
DULUTH         MOSUNNY   74  56  53 SW12      29.95F
6HR MIN TEMP:  74; 6HR MAX TEMP:  77;

INTRNTL FALLS  CLOUDY    72  59  63 W9        29.90S
6HR MIN TEMP:  72; 6HR MAX TEMP:  77;

ELY            MOSUNNY   73  55  53 W8        29.93S
CLOQUET        MOSUNNY   73  55  53 SW7       29.96F
WHEATON        SUNNY     72  52  49 CALM      29.98S
BRAINERD       SUNNY     74  54  49 SW9       29.96F
6HR MIN TEMP:  74; 6HR MAX TEMP:  78;

HIBBING        MOSUNNY   74  57  55 W3        29.94F
6HR MIN TEMP:  73; 6HR MAX TEMP:  77;

ALEXANDRIA     SUNNY     71  49  45 S10       29.99F
6HR MIN TEMP:  70; 6HR MAX TEMP:  73;

SAINT CLOUD    SUNNY     74  53  48 S6        29.97F
6HR MIN TEMP:  73; 6HR MAX TEMP:  77;

MINNEAPOLIS    PTSUNNY   75  53  46 SW7       29.98S
6HR MIN TEMP:  73; 6HR MAX TEMP:  77;

$$

  *****  WEATHER ACROSS SOUTH DAKOTA  *****

CITY           SKY/WX    TMP DP  RH WIND       PRES   REMARKS
SIOUX FALLS    CLOUDY    69  57  65 E3        29.98F
6HR MIN TEMP:  68; 6HR MAX TEMP:  72; 6HR PCP:  0.01;

BROOKINGS      PTSUNNY   72  52  49 S7        30.00F
WATERTOWN      SUNNY     73  49  42 S7        29.98S
6HR MIN TEMP:  70; 6HR MAX TEMP:  74;

HURON          SUNNY     70  59  68 S10       29.96F
6HR MIN TEMP:  63; 6HR MAX TEMP:  73; 6HR PCP:  0.04;

SISSETON         N/A     74  55  51 S8        29.95S
ABERDEEN       SUNNY     72  62  71 S8        29.96F
6HR MIN TEMP:  63; 6HR MAX TEMP:  73; 6HR PCP: TRACE;

MITCHELL       PTSUNNY   69  59  70 E8        29.98F
PIERRE         SUNNY     78  64  61 NE6       29.95F
6HR MIN TEMP:  72; 6HR MAX TEMP:  79;

MOBRIDGE       MOSUNNY   79  66  64 N6        29.94F HAZE
RAPID CITY     SUNNY     78  57  48 N20       30.06S
6HR MIN TEMP:  74; 6HR MAX TEMP:  81;

$$

  *****  SOME WEATHER IN NEARBY STATES *****

CITY           SKY/WX    TMP DP  RH WIND       PRES   REMARKS
GLASGOW MT     MOSUNNY   82  53  36 N10       30.02F
6HR MIN TEMP:  70; 6HR MAX TEMP:  84;

GREAT FALLS MT SUNNY     85  48  27 E12       30.07F
6HR MIN TEMP:  76; 6HR MAX TEMP:  85;

CHEYENNE WY    PTSUNNY   78  51  38 NE7       30.21S
6HR MIN TEMP:  74; 6HR MAX TEMP:  80;

SCOTTSBLUFF NE SUNNY     83  55  38 N12       30.08F
6HR MIN TEMP:  81; 6HR MAX TEMP:  86;

OMAHA NE       LGT RAIN  70  63  78 E5        29.94F
6HR MIN TEMP:  66; 6HR MAX TEMP:  71; 6HR PCP:  0.05;

DES MOINES IA  CLOUDY    68  53  58 NE6       29.96F
6HR MIN TEMP:  68; 6HR MAX TEMP:  70; 6HR PCP: TRACE;

DAVENPORT IA   CLOUDY    68  56  65 NE7       29.96F
6HR MIN TEMP:  68; 6HR MAX TEMP:  73;

CHICAGO IL     PTSUNNY   63  52  67 NE8       29.97F
6HR MIN TEMP:  63; 6HR MAX TEMP:  69;

EAU CLAIRE WI  CLOUDY    75  54  47 VRB3      29.98F
6HR MIN TEMP:  73; 6HR MAX TEMP:  76;

LA CROSSE WI   SUNNY     74  53  48 SE7       29.97F
6HR MIN TEMP:  72; 6HR MAX TEMP:  77;

$$

  *****  SOME NATIONAL WEATHER *****

CITY           SKY/WX    TMP DP  RH WIND       PRES   REMARKS
LA GUARDIA NY  CLOUDY    74  59  59 VRB5      29.86S
6HR MIN TEMP:  74; 6HR MAX TEMP:  81;

RALEIGH NC     CLOUDY    73  71  93 NE5       29.88S
6HR MIN TEMP:  72; 6HR MAX TEMP:  87; 6HR PCP:  0.24;

ATLANTA GA     MOCLDY    82  67  60 W8        29.98R
6HR MIN TEMP:  76; 6HR MAX TEMP:  87; 6HR PCP:  0.14;

NEW ORLEANS LA MOSUNNY   86  71  60 S8        30.02S HX  91
6HR MIN TEMP:  86; 6HR MAX TEMP:  91;

OKLAHOMA CITY  CLOUDY    85  72  65 S10       29.87F HX  91
6HR MIN TEMP:  85; 6HR MAX TEMP:  93;

ALBUQUERQUE NM TSTM      76  57  51 E33G43    30.07R
6HR MIN TEMP:  76; 6HR MAX TEMP:  95; 6HR PCP: TRACE;

SALT LAKE CITY MOSUNNY   97  38  13 N9        29.98F HX  92
6HR MIN TEMP:  92; 6HR MAX TEMP:  98;

LOS ANGELES CA MOSUNNY   71  63  75 SW16      29.94F
6HR MIN TEMP:  71; 6HR MAX TEMP:  75;

BOISE ID       SUNNY    103  42  12 NW13      29.89F HX  98


USA.gov is the U.S. government's official web portal to all federal, state and local government web resources and services.